User: anonymous   Login
Location: Bergnerzell
(49.1816°N, 10.2565°E)
Time: 08:17:15
(UTC+00:00)
Language:

Cosmos 1295 Rocket - Orbit

View from above orbital plane
View from above orbital plane
View from above satellite
View from above satellite

Ground track
Ground track

The orbit data is extracted from the following two-line orbital elements,

1 12682U 81077B   24202.81051342  .00000079  00000-0  62465-4 0  9999
2 12682  82.9141 238.2039 0032520 277.4484  82.2980 13.78765804159554
Epoch (UTC): 20 July 2024 19:27:08
Eccentricity: 0.0032520
inclination: 82.9141°
perigee height: 944 km
apogee height: 992 km
right ascension of ascending node: 238.2039°
argument of perigee: 277.4484°
revolutions per day: 13.78765804
mean anomaly at epoch: 82.2980°
orbit number at epoch: 15955

The dashed part of the orbit path shows where the satellite is in the earth's shadow,  

DLR